Location: Remedello Sotto
(45.2500°N, 10.3667°E)
Time: 09:57:00
(UTC+00:00)

Cosmos 2360 Rocket - Pass Details

Date: 03 February 2023
Orbit: 832 x 846 km, 71.0° (Epoch: 30 March)

Event Time Altitude Azimuth Distance (km) Brightness Sun altitude
Rises 19:47:10 0° 252° (WSW) 3,384 6.1 -35.1°
Reaches altitude 10° 19:50:19 10° 270° (W) 2,456 5.3 -35.7°
Maximum altitude 19:54:18 19° 315° (NW) 1,890 4.5 -36.3°
Enters shadow 19:56:46 15° 347° (NNW) 2,133 4.5 -36.8°
